P/2022 BV9 ( Lemmon )

Japanese version
Home page
Updated on April 29, 2023

---------------------------------------------------------------------

* Profile

Discovery Date January 30, 2022
Magnitude 20.5 mag
Discoverer Mt. Lemmon Survey

* Orbital Elements

T 2020 Oct. 23.91099 TT                                 Rudenko                 
q   3.3347640            (2000.0)            P               Q                  
n   0.10824854     Peri.   16.16935     +0.99117475     +0.10583090             
a   4.3603501      Node   337.29362     -0.13245400     +0.81493727             
e   0.2352073      Incl.   11.93503     +0.00534356     +0.56980441             
P   9.11                                                                        
>From 109 observations 2021 Feb. 6-2023 Apr. 11.                                 

* Magnitudes Graph

        H = 13.0  G = 0.15

---------------------------------------------------------------------

The orbital elements are published on M.P.E.C. 2023-H240.
The magnitudes graphs are made with Comet for Windows.

---------------------------------------------------------------------

Copyright(C) Seiichi Yoshida (comet@aerith.net). All rights reserved.